2014121119 , 19 , 17
2014121120 , 20 , 22
2014121121 , 21 , 19
2014121122 , 22 , 33
2014121123 , 23 , 24
2014121200 , 00 , 16
2014121201 , 01 , 26
2014121202 , 02 , 20
2014121203 , 03 , 10
2014121204 , 04 , 11
2014121205 , 05 , 21
2014121206 , 06 , 41
2014121207 , 07 , 31
2014121208 , 08 , 26
2014121209 , 09 , 17
2014121210 , 10 , 14
2014121211 , 11 , 13
2014121212 , 12 , 12
2014121213 , 13 , 18
2014121214 , 14 , 30
2014121215 , 15 , 5
2014121216 , 16 , 12
2014121217 , 17 , 14
2014121218 , 18 , 40
2014121219 , 19 , 38
2014121220 , 20 , 33
2014121221 , 21 , 37
2014121222 , 22 , 21
2014121223 , 23 , 20
2014121300 , 00 , 20
2014121301 , 01 , 17
2014121302 , 02 , 24
2014121303 , 03 , 18
2014121304 , 04 , 19
2014121305 , 05 , 20
2014121306 , 06 , 49
2014121307 , 07 , 53
2014121308 , 08 , 58
2014121309 , 09 , 25
2014121310 , 10 , 15
2014121311 , 11 , 15
2014121312 , 12 , 9
2014121313 , 13 , 16
2014121314 , 14 , 11
2014121315 , 15 , 10
2014121316 , 16 , 15
2014121317 , 17 , 34
2014121318 , 18 , 46
2014121319 , 19 , 68
2014121320 , 20 , 77
2014121321 , 21 , 74
